{"data":{"norad_id":67199,"intl_designator":"2025-304H","name":"STARLINK-36268","alt_names":[],"object_type":"PAYLOAD","status":"ACTIVE","operator":null,"country":"US","launch_date":"2025-12-17","launch_site_code":"AFWTR","launch_vehicle":null,"mission":null,"orbit_class":"UNKNOWN","rcs_meters":null,"size_class":null,"mass_kg":null,"dimensions":null,"purposes":["comms"],"wikipedia_slug":null,"has_3d_model":false,"image_url":null,"decayed_at":null,"tle_current":{"epoch":"2026-05-25T00:09:52.683264Z","epoch_age_seconds":74521,"freshness":"FRESH","line1":"1 67199U 25304H   26145.00685976  .00009888  00000+0  83476-3 0  9998","line2":"2 67199  70.0024 342.1348 0002189 264.8602  95.2307 14.98358452 25305","mean_motion":14.98358452,"eccentricity":0.0002189,"inclination_deg":70.0024,"raan_deg":342.1348,"arg_perigee_deg":264.8602,"mean_anomaly_deg":95.2307,"bstar":0.00083476,"rev_number":2530,"period_min":96.105174170967,"perigee_km":570.4465289096,"apogee_km":573.48928483783,"semimajor_km":6950.1049068737,"source":"CELESTRAK","updated_at":"2026-05-25T13:38:21.508161Z"}}}